Regional Weather Roundup
Issued by NWS

Home | Current Version | Previous Version | Text Only | Print | Product List | Glossary Off
Versions: 1 2 3 4 5 6 7 8 9 10 11 12 13 14 15 16 17 18 19 20 21 22 23 24 25 26 27 28 29 30 31 32 33 34 35 36 37 38 39 40 41 42 43 44 45 46 47 48 49 50

009
ASUS44 KMEG 040510
RWRTN
TENNESSEE HOURLY STATE WEATHER ROUNDUP
NATIONAL WEATHER SERVICE MEMPHIS TN
1100 PM CST SAT DEC 03 2016

TNZ002-004-019-021-049-052-054-088>092-040600-
WEST TENNESSEE

CITY           SKY/WX    TMP DP  RH WIND       PRES   REMARKS
MEMPHIS INTL   RAIN      43  41  93 E10       30.15S
NWS MEMPHIS      N/A     41 N/A N/A MISG        N/A
JACKSON        LGT RAIN  41  32  70 E7        30.18F
DYERSBURG      CLOUDY   N/A N/A N/A SE6       30.18S
UNION CITY     CLOUDY    37  37 100 E5        30.17F WCI  34
PARIS          MOCLDY    36  36 100 E8        30.18F WCI  29
HUNTINGDON     CLOUDY    39  37  93 E6        30.18S WCI  35
LEXINGTON      MOCLDY    39  37  93 E3        30.18R
$$

TNZ008-025-027-028-033-062-065-066-040600-
NORTH MIDDLE TENNESSEE

CITY           SKY/WX    TMP DP  RH WIND       PRES   REMARKS
NASHVILLE      LGT RAIN  40  37  89 E6        30.22F
PORTLAND       CLOUDY    39  36  87 CALM      30.21F
CLARKSVILLE    LGT RAIN  40  34  79 E8        30.21F WCI  34
SMYRNA         LGT RAIN  39  37  92 E7        30.23F WCI  34
CROSSVILLE     MIX PCPN  37  35  92 E3        30.22S FOG
$$

TNZ061-075-076-078-094-096-097-040600-
SOUTH MIDDLE TENNESSEE

CITY           SKY/WX    TMP DP  RH WIND       PRES   REMARKS
FAYETTEVILLE   CLOUDY    41  39  93 NE7       30.18F FOG
TULLAHOMA      CLOUDY    37  37 100 E6        30.19F WCI  33
WINCHESTER     CLOUDY    39  39 100 NE3       30.20S
MCMINNVILLE    CLOUDY    39  39 100 NE7       30.20F WCI  34
COLUMBIA       CLOUDY   N/A N/A N/A E6        30.17F
SHELBYVILLE    CLOUDY    41  41 100 E3        30.21F
$$

TNZ017-018-042-046-047-040600-
NORTHEAST TENNESSEE

CITY           SKY/WX    TMP DP  RH WIND       PRES   REMARKS
TRI CITIES     CLOUDY    39  31  72 NE3       30.23F
ELIZABETHTON   CLOUDY    39  34  81 CALM      30.22F
$$

TNZ012-013-036-069-073-074-040600-
CENTRAL EAST TENNESSEE

CITY           SKY/WX    TMP DP  RH WIND       PRES   REMARKS
KNOXVILLE      LGT RAIN  41  36  82 N7        30.23S
OAK RIDGE      LGT RAIN  41  37  86 CALM      30.26S
DOWNTOWN KNOXV CLOUDY    41  39  93 CALM      30.25S
GATLINBURG     CLOUDY    39  34  81 CALM      30.24S
MORRISTOWN     CLOUDY    41  32  70 CALM      30.23S
JACKSBORO      CLOUDY    39  37  93 CALM      30.28S
$$

TNZ083-085-099-040600-
SOUTHEAST TENNESSEE

CITY           SKY/WX    TMP DP  RH WIND       PRES   REMARKS
CHATTANOOGA    LGT RAIN  42  38  85 NE8       30.24S FOG
$$

SKY/WX REPORTED AS FAIR MEANS FEW OR NO CLOUDS BELOW
12 THOUSAND FEET.





USA.gov is the U.S. government's official web portal to all federal, state and local government web resources and services.